Location: Ca�n Batista
(41.4099°N, 1.7752°E)
Time: 13:09:49
(UTC+00:00)

BREEZE-M DEB (TANK) - Pass Details

Date: 03 March 2021
Orbit: 333 x 11904 km, 49.7° (Epoch: 21 April)

Event Time Altitude Azimuth Distance (km) Brightness Sun altitude
Rises 18:53:46 0° 220° (SW) 2,439 7.3 -13.5°
Reaches altitude 10° 18:56:01 10° 209° (SSW) 1,323 5.7 -13.9°
Maximum altitude 18:58:16 33° 141° (SE) 588 3.2 -14.3°
Enters shadow 18:58:31 32° 126° (SE) 605 3.2 -14.4°
